Location: Arbon
(43.0005°N, 0.7472°E)
Time: 09:10:45
(UTC+00:00)

SR - Pass Details

Date: 05 December 2020
Orbit: 575 x 880 km, 66.7° (Epoch: 21 January)

Event Time Altitude Azimuth Distance (km) Brightness Sun altitude
Rises 00:01:18 0° 338° (NNW) 3,173 - -69.2°
Reaches altitude 10° 00:04:16 10° 356° (N) 2,306 - -69.1°
Maximum altitude 00:08:05 20° 42° (NE) 1,800 - -69.0°
Drops below altitude 10° 00:12:04 10° 88° (E) 2,433 - -68.8°
Sets 00:15:18 0° 105° (ESE) 3,407 - -68.6°
